Temperature
21 19 18 19 19 20 20 20 19 20 20 20 19 18 18 18 18 18 18 18 18 18 18 18 18 18 17 17 17 17 16 16 16 16 15 15 15 15 14 14 14 14 14 14
19 19 20 21 21 21 20 20 20 20 21 20 18 18 18 18 18 18 18 18 18 18 18 18 18 17 17 17 17 16 16 16 16 15 15 15 15 14 14 14 14 14 14 14
19 20 21 22 21 21 20 20 20 20 20 20 19 18 18 18 18 18 18 18 18 18 18 17 17 17 17 17 17 16 16 16 15 15 15 15 14 14 14 14 14 13 13 13
19 21 22 21 21 21 20 21 21 20 19 17 19 17 17 17 17 17 18 18 18 18 18 18 17 17 17 17 17 16 16 16 15 15 15 15 14 14 14 14 13 13 13 13
20 21 21 21 21 21 20 21 21 20 19 17 17 17 16 17 17 17 17 18 18 18 18 18 17 17 17 17 16 16 16 15 15 15 15 15 14 14 13 13 13 13 13 13
20 21 21 21 22 22 21 20 19 16 16 17 17 17 17 16 17 17 17 17 18 18 18 17 17 17 17 16 16 16 15 15 15 15 14 14 14 14 13 13 13 13 12 12
19 20 21 22 21 21 19 17 16 17 15 16 17 17 17 17 18 18 17 17 18 18 17 17 17 17 16 16 16 16 15 15 15 14 14 14 14 14 13 13 13 12 12 12
18 18 20 21 20 19 19 17 16 17 16 16 17 17 17 18 19 19 19 18 18 17 17 17 17 17 16 16 16 16 15 15 15 14 14 14 14 13 13 13 12 12 12 12
18 18 20 21 21 20 19 17 17 16 17 16 16 17 18 18 17 17 17 17 17 17 17 17 17 17 16 16 16 15 15 15 14 14 14 14 13 13 13 12 12 12 12 11
18 18 19 20 20 20 19 18 15 16 16 16 16 17 16 17 17 17 16 16 17 17 17 17 17 16 16 16 16 15 15 15 14 14 14 14 13 13 13 12 12 12 11 11
18 17 18 19 19 19 19 18 17 15 15 15 16 16 18 17 17 16 16 17 17 17 17 17 16 16 16 16 15 15 15 14 14 14 13 13 13 13 12 12 12 12 11 11
17 15 16 17 18 19 19 18 16 16 16 14 14 15 17 17 17 17 17 17 17 17 17 17 16 16 16 15 15 15 14 14 14 14 13 13 13 12 12 12 11 11 11 11
17 15 16 17 17 18 19 18 17 15 14 14 14 16 17 17 17 17 17 17 17 17 16 16 16 16 15 15 15 14 14 14 14 13 13 13 12 12 12 11 11 11 11 11
17 15 16 16 17 17 18 18 18 16 14 14 15 16 16 16 16 16 17 17 17 17 16 16 15 15 15 15 15 14 14 13 13 13 13 12 12 12 12 11 11 11 10 10
16 15 16 16 17 18 18 18 18 16 15 15 16 16 16 16 16 16 16 16 16 16 15 15 15 15 15 15 14 14 14 13 13 13 12 12 12 12 11 11 11 10 10 10
14 15 16 16 17 17 17 17 17 17 16 16 16 16 16 16 17 16 16 16 15 15 15 15 15 15 15 14 14 14 13 13 13 12 12 12 12 11 11 11 10 10 10 10
14 14 15 14 16 16 16 17 17 17 17 16 16 16 15 15 15 15 16 16 16 16 15 15 15 15 14 14 14 14 13 13 12 12 12 12 11 11 11 10 10 10 10 9
13 13 13 13 15 15 16 16 17 17 17 16 16 15 15 15 16 16 16 16 16 16 15 15 15 14 14 14 13 13 13 12 12 12 12 11 11 11 10 10 10 10 9 9
13 14 13 13 13 14 16 17 17 16 16 15 15 15 15 15 15 15 16 16 16 16 15 15 15 14 14 13 13 13 12 12 12 12 11 11 11 11 10 10 10 9 9 9
13 13 12 12 13 14 15 16 17 16 15 15 15 14 14 14 13 13 15 15 15 15 15 15 14 14 13 13 12 12 12 12 12 11 11 11 11 10 10 10 10 9 9 9
13 12 12 12 12 13 14 16 17 15 15 15 15 15 15 14 14 15 15 15 15 15 14 14 13 13 13 12 12 12 12 11 11 11 11 10 10 10 10 10 9 9 9 8
12 12 11 11 12 13 15 15 15 14 15 16 15 15 15 15 15 15 15 14 14 14 14 13 13 13 12 12 11 11 11 11 11 11 10 10 10 10 9 9 9 9 8 8
11 12 11 12 12 13 15 15 16 16 15 15 16 15 15 14 14 14 14 14 13 13 13 13 12 12 12 11 11 11 11 10 10 10 10 10 9 9 9 9 8 8 8 8
11 11 11 11 12 13 14 15 15 15 15 15 15 15 15 14 14 14 13 13 13 12 12 12 12 11 11 11 11 10 10 10 10 9 9 9 9 8 8 8 8 8 8 7
11 11 11 11 11 13 13 14 14 14 14 14 14 14 14 14 13 13 13 12 12 12 12 11 11 11 11 10 10 10 10 9 9 9 9 8 8 8 8 7 7 7 7 7
10 11 11 11 12 11 12 13 13 14 13 13 13 13 13 13 13 12 12 12 11 11 11 11 11 10 10 10 10 9 9 9 9 8 8 8 7 7 7 7 7 6 6 6
Wind_Speed
1 3 3 7 7 7 5 5 5 6 6 5 6 7 7 8 8 9 8 8 9 8 7 6 7 6 6 6 7 6 5 4 4 3 2 2 2 2 2 3 4 5 5 5
3 4 9 6 5 4 3 3 3 3 3 5 5 7 6 10 11 12 11 10 10 8 6 5 5 5 6 6 5 5 5 4 4 3 2 2 2 2 2 2 4 5 5 4
6 7 6 4 3 3 2 4 4 4 1 0 1 3 4 5 7 8 9 10 10 12 11 9 7 6 6 6 6 6 5 4 4 4 3 3 3 3 3 3 2 3 4 4
5 6 3 3 3 4 4 5 4 3 2 3 3 3 6 6 6 8 9 9 10 10 10 10 9 7 7 7 6 6 6 5 4 4 5 5 4 2 1 1 1 2 4 4
4 3 2 4 5 5 6 3 2 3 3 1 1 3 6 3 6 9 10 10 10 11 12 11 10 9 8 7 7 6 6 5 4 4 5 5 4 2 1 1 2 2 3 4
5 4 4 5 4 3 2 3 4 5 4 2 5 5 6 6 9 9 10 10 10 10 10 9 8 7 6 6 6 6 6 4 4 5 5 5 5 4 3 2 2 1 1 2
4 4 2 2 1 2 5 5 4 4 3 5 4 4 7 8 9 11 13 11 10 10 10 10 9 8 7 7 6 6 7 5 4 5 4 5 5 5 5 3 3 2 1 1
1 5 4 2 4 4 3 8 6 4 4 4 2 4 6 5 4 7 9 10 10 10 10 11 10 9 8 8 7 7 7 6 5 5 4 4 5 4 3 4 3 3 2 1
4 5 3 2 3 6 4 4 6 5 2 2 4 4 5 3 3 6 8 9 10 10 10 10 9 8 8 8 8 8 8 6 6 5 5 4 4 4 4 3 3 2 1 1
5 3 4 2 2 1 5 6 5 4 2 3 4 3 4 5 5 6 8 10 9 9 9 9 9 8 7 7 6 6 7 7 6 6 5 4 4 4 4 4 3 2 2 1
4 4 3 1 3 5 3 3 4 4 4 5 3 6 4 8 8 9 9 9 10 10 9 9 7 6 6 6 6 6 6 6 5 6 5 4 4 4 4 3 3 3 2 2
3 4 2 5 5 4 6 6 6 4 3 4 3 6 5 5 7 9 9 8 9 9 8 8 7 6 5 5 5 6 6 6 6 5 5 5 4 4 4 3 3 3 2 2
3 5 1 5 5 2 1 3 5 5 4 4 4 6 3 1 3 5 8 8 8 8 8 7 7 6 6 5 5 5 5 6 5 5 5 4 4 4 5 4 3 3 3 2
4 4 6 7 7 4 4 4 4 5 4 5 7 7 4 2 4 5 6 8 8 8 8 8 7 6 6 5 5 5 5 5 5 5 5 5 5 5 5 4 3 3 3 2
4 2 4 7 7 5 6 6 6 7 8 8 8 8 8 7 7 7 7 8 8 8 8 8 7 6 5 5 4 5 5 5 5 5 5 5 5 4 4 3 3 3 3 2
2 2 1 4 4 3 5 6 6 7 6 7 6 7 6 5 4 5 7 8 9 8 8 8 7 6 6 6 5 4 4 4 5 5 5 4 4 4 4 4 3 3 2 2
1 2 1 4 4 3 5 7 7 6 5 7 9 8 4 4 6 7 7 8 9 8 8 8 8 7 6 6 6 6 5 4 4 4 4 4 5 4 4 4 3 3 3 3
4 3 2 2 2 5 7 4 6 5 4 5 5 5 6 6 5 4 5 7 7 7 7 7 7 6 5 5 5 5 4 4 4 4 4 4 4 4 3 3 3 3 3 3
6 5 3 2 3 6 6 4 2 4 3 2 5 5 5 6 5 2 1 5 6 6 6 6 6 5 5 5 5 5 4 4 4 4 4 4 5 4 4 4 4 3 3 2
2 3 4 3 3 6 6 5 2 3 3 4 4 7 7 7 4 4 3 3 4 4 4 4 4 4 4 4 5 5 4 4 4 4 4 4 4 5 5 5 5 3 3 3
1 1 3 4 5 6 6 5 2 3 6 3 5 6 8 7 6 5 5 4 4 4 4 5 5 4 4 4 5 5 4 4 4 3 2 2 3 4 5 4 3 3 3 3
5 3 4 4 4 7 4 0 3 6 2 3 4 5 6 5 5 5 5 5 4 4 3 4 4 3 2 4 5 4 4 3 2 2 2 1 1 2 2 3 3 3 3 3
4 6 5 6 6 4 3 2 3 2 2 2 4 4 6 6 5 5 5 5 4 4 4 3 4 2 1 2 4 5 4 3 3 2 2 1 1 1 1 3 3 2 2 3
3 1 2 3 4 4 3 2 2 0 1 2 3 5 7 6 5 5 5 4 3 3 3 3 4 3 1 1 3 4 3 3 4 3 2 2 2 1 1 1 2 3 3 3
4 1 2 4 6 4 3 2 2 2 1 2 2 3 5 7 6 5 5 4 3 2 2 3 4 3 3 2 2 3 3 4 3 3 2 2 2 2 1 1 2 3 3 4
5 6 6 8 6 4 5 5 2 1 2 2 2 2 3 5 6 5 4 3 3 3 2 2 2 2 2 2 2 2 3 4 4 3 3 3 2 2 2 2 0 1 2 4
Wind_Direction
62 89 220 225 210 202 204 207 225 230 213 180 207 221 209 187 180 180 179 175 179 184 184 169 157 151 139 135 135 139 138 135 128 114 109 100 82 58 50 54 63 77 83 86
39 244 234 225 219 211 208 205 235 266 215 184 209 233 213 189 192 188 184 183 183 175 162 158 151 145 145 148 146 137 133 136 136 140 149 136 127 102 83 52 50 61 72 79
201 237 237 224 214 203 222 194 212 219 312 264 155 287 235 214 201 194 187 182 179 174 169 165 156 151 144 149 154 151 145 142 136 128 109 90 71 56 46 42 29 29 66 80
224 244 238 228 231 192 236 227 205 182 135 253 174 248 257 218 204 202 194 181 179 173 168 168 165 161 160 160 151 144 143 139 136 131 128 128 126 128 168 147 48 16 46 68
243 231 213 221 229 196 215 226 197 186 168 272 253 190 272 208 206 209 199 188 182 175 169 169 171 172 167 154 149 149 141 136 136 133 135 134 129 132 121 88 70 42 25 46
240 241 198 208 223 206 171 66 40 52 76 291 239 188 258 215 208 199 198 192 180 174 169 167 167 160 155 150 148 149 146 149 146 132 132 140 141 133 119 103 93 58 27 26
307 295 265 189 137 22 87 86 35 0 8 253 244 191 245 241 207 189 186 185 176 170 167 165 162 163 163 162 161 156 151 156 157 141 141 151 150 148 150 156 153 138 85 12
221 284 261 201 169 183 170 139 156 198 226 272 308 225 258 276 198 175 168 163 161 164 167 169 171 171 171 170 165 158 158 163 165 155 154 151 151 155 161 167 164 170 186 212
181 253 270 211 167 150 143 166 173 151 209 262 278 285 312 18 113 144 152 158 166 169 171 171 170 171 172 172 170 166 163 163 165 163 155 149 150 151 158 164 156 164 181 181
164 224 283 295 66 88 154 151 98 124 176 256 288 266 239 223 197 171 168 174 175 170 169 169 172 173 171 172 169 161 161 164 161 158 164 160 161 160 155 145 149 158 168 148
151 169 293 352 187 203 156 143 131 146 167 166 247 270 240 204 192 179 180 177 171 168 170 171 172 171 165 159 159 160 161 156 160 164 162 155 164 160 152 155 168 168 160 145
148 139 229 258 266 210 173 173 150 165 224 174 181 268 291 205 185 172 173 172 167 166 164 165 164 156 156 160 162 168 169 167 172 171 162 160 162 157 156 165 174 165 156 152
129 123 98 330 327 350 173 184 169 154 146 166 179 258 319 88 157 161 163 162 162 159 155 151 149 156 164 168 169 174 176 178 175 165 161 161 164 167 173 177 174 165 156 147
122 132 174 203 218 217 229 229 191 156 177 209 215 234 271 242 189 174 169 166 164 161 157 156 160 170 173 174 175 176 181 179 173 166 168 176 183 183 185 181 176 172 163 154
98 175 224 233 235 224 224 227 215 202 197 204 226 222 237 224 208 190 172 161 157 159 161 164 169 173 176 176 181 181 180 175 171 169 179 191 186 176 167 167 173 169 166 169
82 182 273 279 262 245 255 245 226 227 218 215 222 238 240 215 173 164 169 166 165 171 173 171 168 167 175 179 180 175 176 178 168 174 186 180 167 165 169 175 171 164 168 166
157 148 165 274 299 335 269 239 219 217 212 196 215 227 208 170 171 182 183 178 177 176 171 171 171 175 181 184 177 178 178 167 163 172 178 174 172 175 184 181 168 173 183 180
173 163 168 245 339 245 250 251 212 208 234 213 191 188 185 176 164 163 167 170 175 174 171 173 175 178 180 174 168 165 158 159 165 174 184 187 177 180 183 177 188 194 187 185
184 171 165 166 235 270 288 280 204 184 264 244 181 168 156 134 92 23 200 164 169 169 169 177 178 172 166 167 165 151 153 158 166 183 194 196 188 183 179 185 197 198 186 188
126 137 153 169 208 241 257 277 248 132 266 260 175 166 160 136 145 226 222 155 141 141 146 148 147 143 151 165 156 152 166 167 189 203 204 199 189 186 192 200 201 197 187 195
69 83 179 203 229 258 264 281 89 166 241 236 176 170 167 176 191 184 163 146 141 137 137 135 134 146 169 165 150 160 172 198 209 198 188 193 195 201 203 198 193 184 181 173
190 187 205 187 214 254 284 79 187 224 233 172 167 169 167 161 139 142 145 143 136 124 121 136 143 156 170 163 157 170 200 212 182 154 157 195 224 222 198 182 188 177 172 172
202 197 200 202 220 262 280 228 242 173 158 177 170 168 151 143 151 153 151 147 143 141 145 151 148 151 164 164 163 178 209 183 154 148 169 199 204 189 171 175 178 170 170 176
272 205 188 254 274 291 298 319 339 90 148 177 160 150 145 146 153 150 147 144 142 140 146 143 138 147 193 203 178 186 193 168 153 164 188 191 171 165 148 174 177 177 188 194
244 218 224 255 277 302 302 308 310 350 45 86 98 137 152 145 149 156 155 154 154 149 152 147 156 175 204 208 199 195 179 160 159 175 193 190 181 176 177 185 197 197 205 202
235 222 224 241 243 231 257 268 239 194 200 171 145 143 154 154 157 155 157 158 151 147 139 143 158 176 204 204 200 203 188 170 169 185 194 187 183 181 175 170 282 272 238 228
Height
1501 1507 1511 1508 1507 1508 1510 1513 1515 1511 1505 1508 1512 1512 1511 1511 1513 1514 1515 1517 1518 1520 1522 1523 1525 1526 1527 1528 1528 1529 1529 1530 1530 1530 1530 1530 1530 1530 1530 1530 1530 1530 1529 1529
1507 1508 1501 1500 1501 1504 1506 1512 1512 1508 1503 1507 1511 1511 1508 1508 1509 1510 1511 1514 1516 1518 1520 1522 1523 1525 1525 1526 1527 1528 1528 1529 1529 1529 1529 1529 1529 1529 1529 1529 1529 1528 1528 1528
1507 1502 1496 1498 1501 1504 1506 1509 1510 1509 1506 1505 1510 1514 1510 1507 1507 1509 1510 1511 1513 1514 1517 1519 1521 1522 1524 1525 1525 1526 1527 1527 1528 1528 1528 1528 1529 1528 1528 1528 1528 1527 1527 1527
1501 1496 1496 1498 1500 1502 1508 1501 1502 1505 1513 1519 1514 1527 1513 1507 1507 1506 1507 1509 1510 1512 1514 1516 1518 1520 1521 1522 1524 1525 1525 1526 1527 1527 1527 1527 1527 1527 1527 1527 1527 1527 1527 1526
1500 1495 1496 1499 1497 1497 1500 1496 1499 1503 1510 1518 1516 1524 1517 1507 1508 1505 1504 1505 1506 1509 1511 1513 1515 1517 1519 1521 1522 1523 1524 1525 1526 1526 1526 1526 1526 1526 1526 1526 1526 1526 1525 1525
1495 1492 1492 1493 1492 1493 1494 1499 1503 1511 1517 1527 1517 1522 1518 1508 1501 1499 1500 1501 1504 1506 1509 1512 1514 1516 1517 1519 1521 1522 1523 1524 1524 1524 1525 1525 1525 1525 1525 1525 1525 1524 1524 1524
1500 1494 1491 1490 1493 1494 1497 1513 1527 1528 1535 1530 1513 1516 1511 1495 1490 1491 1494 1497 1501 1504 1507 1509 1512 1514 1516 1517 1519 1520 1521 1522 1523 1523 1523 1524 1524 1524 1524 1524 1523 1523 1523 1523
1509 1508 1493 1490 1493 1498 1499 1509 1528 1536 1536 1527 1513 1515 1503 1489 1487 1488 1491 1495 1499 1502 1505 1507 1509 1511 1513 1515 1517 1518 1519 1520 1521 1522 1522 1523 1523 1523 1523 1523 1522 1522 1522 1522
1507 1506 1490 1487 1488 1492 1500 1507 1507 1521 1522 1527 1520 1509 1497 1490 1490 1490 1492 1495 1497 1500 1502 1505 1507 1509 1511 1513 1515 1516 1517 1518 1519 1520 1521 1521 1521 1521 1521 1521 1521 1521 1521 1521
1496 1503 1493 1488 1488 1490 1493 1499 1513 1520 1527 1532 1521 1514 1509 1497 1494 1492 1493 1494 1496 1498 1501 1503 1505 1507 1509 1511 1513 1514 1516 1516 1518 1519 1519 1520 1520 1520 1520 1520 1520 1520 1520 1520
1492 1502 1499 1493 1494 1496 1496 1500 1506 1517 1520 1529 1530 1518 1492 1491 1489 1490 1491 1492 1494 1497 1499 1501 1504 1506 1508 1509 1511 1512 1514 1515 1516 1517 1518 1518 1518 1518 1519 1519 1519 1519 1519 1518
1491 1501 1506 1498 1490 1487 1490 1495 1503 1516 1517 1520 1525 1516 1487 1486 1486 1487 1489 1491 1493 1495 1497 1500 1502 1504 1506 1507 1509 1510 1512 1513 1514 1515 1516 1516 1517 1517 1517 1517 1517 1517 1517 1517
1491 1501 1511 1508 1502 1493 1491 1491 1495 1503 1512 1519 1522 1512 1487 1486 1487 1487 1488 1490 1492 1494 1497 1499 1500 1502 1504 1505 1507 1508 1510 1511 1512 1513 1514 1514 1515 1515 1515 1515 1516 1516 1515 1515
1487 1497 1504 1508 1503 1495 1494 1491 1492 1500 1511 1513 1510 1501 1491 1488 1487 1487 1488 1489 1491 1493 1495 1497 1498 1500 1501 1503 1504 1506 1507 1508 1510 1511 1511 1512 1512 1513 1513 1513 1514 1514 1514 1513
1487 1496 1495 1492 1489 1488 1489 1489 1489 1493 1497 1502 1498 1494 1488 1486 1485 1485 1486 1488 1490 1491 1493 1495 1496 1498 1499 1501 1502 1503 1504 1506 1507 1508 1509 1509 1510 1510 1511 1511 1511 1511 1511 1511
1489 1494 1493 1492 1486 1486 1487 1485 1486 1487 1488 1490 1490 1489 1482 1481 1482 1484 1485 1486 1488 1489 1491 1493 1494 1496 1497 1498 1499 1501 1502 1503 1504 1505 1506 1507 1508 1508 1508 1509 1509 1509 1509 1509
1492 1494 1498 1500 1491 1488 1492 1483 1482 1482 1480 1482 1486 1483 1479 1480 1481 1482 1483 1485 1485 1486 1488 1490 1492 1494 1495 1496 1497 1498 1499 1500 1501 1502 1503 1504 1505 1505 1505 1506 1506 1506 1507 1507
1490 1494 1499 1501 1497 1501 1486 1474 1474 1476 1475 1474 1475 1475 1476 1477 1478 1480 1482 1483 1484 1485 1487 1489 1490 1492 1493 1494 1495 1496 1497 1498 1499 1499 1500 1501 1502 1502 1503 1503 1503 1503 1503 1503
1483 1490 1498 1503 1502 1494 1482 1474 1473 1476 1477 1473 1473 1474 1475 1476 1479 1481 1481 1482 1483 1484 1485 1487 1488 1490 1491 1492 1493 1494 1494 1495 1496 1497 1497 1498 1499 1499 1499 1500 1500 1500 1500 1500
1483 1486 1495 1500 1500 1497 1483 1472 1469 1473 1479 1472 1471 1472 1474 1476 1482 1482 1480 1481 1482 1483 1484 1485 1486 1488 1489 1490 1491 1491 1491 1492 1493 1494 1494 1495 1495 1496 1496 1496 1496 1497 1497 1497
1488 1491 1495 1498 1498 1489 1476 1470 1470 1482 1479 1470 1470 1470 1471 1472 1474 1476 1478 1479 1480 1481 1482 1483 1484 1485 1486 1487 1488 1488 1489 1489 1490 1491 1491 1492 1492 1492 1493 1493 1493 1493 1493 1493
1488 1492 1494 1496 1497 1490 1472 1471 1474 1473 1468 1468 1468 1469 1470 1471 1472 1474 1475 1477 1478 1479 1480 1481 1482 1483 1484 1485 1485 1486 1486 1487 1487 1488 1488 1488 1488 1489 1489 1489 1489 1489 1489 1489
1483 1483 1484 1485 1483 1474 1470 1470 1469 1468 1467 1468 1467 1468 1469 1470 1471 1472 1474 1475 1476 1478 1478 1479 1480 1480 1481 1482 1483 1483 1484 1484 1484 1484 1485 1485 1485 1485 1485 1485 1484 1485 1485 1485
1479 1476 1479 1479 1474 1471 1470 1469 1468 1468 1467 1467 1467 1467 1468 1468 1470 1471 1472 1473 1474 1475 1476 1477 1478 1478 1479 1479 1480 1480 1481 1481 1481 1481 1481 1481 1481 1481 1481 1481 1481 1481 1481 1480
1477 1476 1476 1476 1473 1470 1469 1469 1468 1468 1467 1467 1467 1467 1468 1468 1469 1470 1471 1472 1472 1473 1474 1474 1475 1475 1476 1476 1477 1477 1477 1477 1477 1477 1477 1477 1477 1477 1477 1477 1477 1477 1477 1477
1472 1473 1474 1472 1469 1469 1468 1467 1467 1467 1467 1467 1466 1467 1467 1467 1468 1468 1469 1469 1470 1471 1471 1471 1472 1472 1472 1473 1473 1474 1474 1474 1474 1473 1473 1473 1473 1473 1473 1473 1473 1473 1473 1473